Погода в Шаромах

Россия / Камчатский край     54°24′01″N   158°12′39″E
темп.,
°C
ветер,
м/с
пор.,
м/с
влажн.,
%
обл.,
%
осадки,
мм/ч
давл.,
гПа
погр.,
м
28 ноября, вс
вс2800:00−13ссз129795 0.6 100666
03:00−16з119794 0.1 100710
06:00−17зюз119797 0.3 100811
09:00−20зюз119898 0.1 100911
12:00−16ю119371 0.1 1008133
15:00−15ююв119055 0.0 1006184
18:00−21зюз119823 0.0 100810
21:00−22зюз21955 0.0 101017
29 ноября, пн
пн2900:00−22зюз219221 0.0 101013
03:00−22зюз21885 0.0 101114
06:00−20юз2188100 0.0 101118
09:00−20юз1191100 0.0 101111
12:00−12ююз1182100 0.0 101163
15:00−8ююз1186100 0.0 101067
18:00−10зюз1193100 0.0 101114
21:00−11з0194100 0.0 101212
30 ноября, вт
вт3000:00−12зюз1194100 0.0 101212
03:00−12с0194100 0.0 101111
06:00−14с1196100 0.0 101010
09:00−14с1196100 0.0 100924
12:00−11юв1091100 0.0 1009120
15:00−9ююз129183 0.1 1008170
18:00−12з37825 0.1 1012165
21:00−14юз22899 0.0 101533
1 декабря, ср
ср100:00−15юз22894 0.0 101836
03:00−14юз25854 0.0 1019169
06:00−15юз34895 0.0 102156
09:00−14юз35884 0.0 102187
12:00−9ююз398523 0.0 1022268
15:00−6ю3580100 0.0 1021168
18:00−9юз2290100 0.0 102234
21:00−8с0192100 0.0 101914
2 декабря, чт
чт200:00−9св1297100 1.4 1018133
03:00−9св1297100 1.9 1014128
06:00−10ссв1296100 3.3 1010104
09:00−10ссв1297100 1.8 1004128
12:00−9всв1295100 7.9 998189
15:00−8ссв2395100 6.8 991259
18:00−8з0197100 10.3 98549
21:00−7ююв2596100 2.5 982173